ZHONGXING-19

Last updated on Wed Sep 09 2026 00:03:03 GMT+0000 (Coordinated Universal Time)

1 54230U 22148A 26251.57138775 -.00000103 00000+0 00000+0 0 9993 2 54230 0.0376 257.2891 0004456 282.0185 177.1868 1.00271722 14219
UTC large
Height (km)
Speed (km/s)
/
Latitude / Longitude
Inclination (degrees)
Orbital Period (minutes)
Azimuth
Elevation
Range (km)
Doppler Factor

Next 0 passes for location: London (51.5072 / 0.1276)

No passes found over London.
ZHONGXING-19